Location: PSU-Greenbush Astrophysical Observatory
(37.5140°N, 94.9880°W)
Time: 09:06:16
(UTC-06:00)

Altair - All Passes

Search period start: 24 January 2020 00:00
Search period end: 03 February 2020 00:00
Orbit: 1502 x 1682 km, 47.2° (Epoch: 23 January)

Date Brightness Start Highest point End Pass type
(mag) Time Alt. Az. Time Alt. Az. Time Alt. Az.
24 Jan - 06:04:58 10° SSE 06:10:10 16° ESE 06:15:25 10° E visible
24 Jan - 08:03:43 10° SW 08:13:28 61° SE 08:23:24 10° ENE daylight
24 Jan - 10:08:30 10° WSW 10:18:31 63° NNW 10:28:36 10° ENE daylight
24 Jan - 12:15:09 10° WNW 12:24:58 49° N 12:34:37 10° ENE daylight
24 Jan - 14:20:55 10° WNW 14:31:07 74° NNE 14:41:00 10° ESE daylight
24 Jan - 16:26:20 10° WNW 16:35:35 44° SW 16:44:33 10° SSE daylight
25 Jan - 05:40:57 10° SSE 05:45:08 13° ESE 05:49:21 10° E visible
25 Jan - 07:38:42 10° SSW 07:48:18 56° SE 07:58:07 10° ENE daylight
25 Jan - 09:43:12 10° WSW 09:53:13 65° NNW 10:03:21 10° ENE daylight
25 Jan - 11:49:49 10° WNW 11:59:37 49° N 12:09:18 10° ENE daylight
25 Jan - 13:55:41 10° WNW 14:05:52 71° NNE 14:15:45 10° ESE daylight
25 Jan - 16:01:01 10° WNW 16:10:28 48° SW 16:19:38 10° SSE daylight
26 Jan - 05:17:25 10° SE 05:20:06 11° ESE 05:22:49 10° ESE visible
26 Jan - 07:13:42 10° SSW 07:23:10 52° SE 07:32:52 10° ENE daylight
26 Jan - 09:17:54 10° WSW 09:27:57 68° NNW 09:38:07 10° ENE daylight
26 Jan - 11:24:29 10° WNW 11:34:16 49° N 11:43:59 10° ENE daylight
26 Jan - 13:30:26 10° WNW 13:40:35 68° NNE 13:50:30 10° ESE daylight
26 Jan - 15:35:43 10° WNW 15:45:21 52° SW 15:54:41 10° SSE daylight
26 Jan - 17:45:43 10° WSW 17:48:23 11° WSW 17:51:01 10° SW daylight
27 Jan - 06:48:44 10° SSW 06:58:02 48° SE 07:07:34 10° ENE visible
27 Jan - 08:52:38 10° WSW 09:02:40 71° NNW 09:12:52 10° ENE daylight
27 Jan - 10:59:09 10° WNW 11:08:55 49° N 11:18:39 10° ENE daylight
27 Jan - 13:05:11 10° WNW 13:15:19 65° NNE 13:25:13 10° ESE daylight
27 Jan - 15:10:26 10° WNW 15:20:13 57° SW 15:29:41 10° SSE daylight
27 Jan - 17:19:11 10° W 17:23:22 13° WSW 17:27:29 10° SSW daylight
28 Jan - 06:23:49 10° SSW 06:32:55 44° SE 06:42:15 10° ENE visible
28 Jan - 08:27:23 10° WSW 08:37:24 75° NNW 08:47:38 10° ENE daylight
28 Jan - 10:33:48 10° WNW 10:43:34 49° N 10:53:20 10° ENE daylight
28 Jan - 12:39:56 10° WNW 12:50:02 62° NNE 12:59:56 10° ESE daylight
28 Jan - 14:45:10 10° WNW 14:55:04 61° SW 15:04:40 10° SE daylight
28 Jan - 16:53:07 10° W 16:58:20 16° WSW 17:03:27 10° SSW daylight
29 Jan - 05:58:55 10° SSW 06:07:48 40° SE 06:16:55 10° ENE visible
29 Jan - 08:02:09 10° WSW 08:12:09 79° NNW 08:22:24 10° ENE daylight
29 Jan - 10:08:28 10° W 10:18:14 50° N 10:28:01 10° ENE daylight
29 Jan - 12:14:40 10° WNW 12:24:44 60° NNE 12:34:38 10° E daylight
29 Jan - 14:19:54 10° WNW 14:29:54 66° SW 14:39:38 10° SE daylight
29 Jan - 16:27:17 10° W 16:33:17 18° WSW 16:39:12 10° SSW daylight
30 Jan - 05:34:05 10° SSW 05:42:42 36° SE 05:51:34 10° ENE visible
30 Jan - 07:36:56 10° WSW 07:46:55 83° NNW 07:57:10 10° ENE daylight
30 Jan - 09:43:08 10° W 09:52:53 50° N 10:02:43 10° ENE daylight
30 Jan - 11:49:24 10° WNW 11:59:26 58° NNE 12:09:19 10° E daylight
30 Jan - 13:54:38 10° WNW 14:04:44 71° SW 14:14:33 10° SE daylight
30 Jan - 16:01:35 10° W 16:08:14 20° SW 16:14:47 10° SSW daylight
31 Jan - 05:09:16 10° S 05:17:37 33° SE 05:26:10 10° ENE visible
31 Jan - 07:11:44 10° WSW 07:21:41 87° NNW 07:31:56 10° ENE daylight
31 Jan - 09:17:47 10° W 09:27:33 51° N 09:37:25 10° ENE daylight
31 Jan - 11:24:08 10° WNW 11:34:07 56° NNE 11:43:59 10° E daylight
31 Jan - 13:29:24 10° WNW 13:39:33 76° SW 13:49:27 10° SE daylight
31 Jan - 15:35:59 10° WNW 15:43:11 23° SW 15:50:17 10° S daylight
01 Feb - 04:44:31 10° S 04:52:32 30° SE 05:00:45 10° ENE visible
01 Feb - 06:46:34 10° SW 06:56:29 88° SE 07:06:41 10° ENE visible
01 Feb - 08:52:27 10° W 09:02:13 52° N 09:12:07 10° ENE daylight
01 Feb - 10:58:51 10° WNW 11:08:48 54° NNE 11:18:39 10° E daylight
01 Feb - 13:04:09 10° WNW 13:14:21 80° SW 13:24:19 10° SE daylight
01 Feb - 15:10:26 10° WNW 15:18:08 25° SW 15:25:40 10° S daylight
02 Feb - 04:19:49 10° S 04:27:28 27° SE 04:35:18 10° ENE visible
02 Feb - 06:21:24 10° SW 06:31:16 84° SE 06:41:27 10° ENE visible
02 Feb - 08:27:08 10° W 08:36:53 53° NNW 08:46:49 10° ENE daylight
02 Feb - 10:33:34 10° WNW 10:43:28 53° NNE 10:53:19 10° E daylight
02 Feb - 12:38:55 10° WNW 12:49:09 85° SW 12:59:10 10° SE daylight
02 Feb - 14:44:57 10° WNW 14:53:03 28° SW 15:01:00 10° S daylight
